Regional Weather Roundup
Issued by NWS Upton, NY

Home | Current Version | Previous Version | Text Only | Print | Product List | Glossary On
Versions: 1 2 3 4 5 6 7 8 9 10 11 12 13 14 15 16 17 18 19 20 21 22 23 24 25 26 27 28 29 30 31 32 33 34 35 36 37 38 39 40 41 42 43 44 45 46 47 48 49 50
054
ASUS41 KOKX 011104
RWROKX

REGIONAL WEATHER ROUNDUP
NATIONAL WEATHER SERVICE NEW YORK NY
700 AM EDT SUN MAY 01 2016

NOTE: "FAIR" INDICATES FEW OR NO CLOUDS BELOW 12,000 FEET WITH NO
SIGNIFICANT WEATHER AND/OR OBSTRUCTIONS TO VISIBILITY.

NYZ071-072-176-178-NJZ106-104-011200-
NEW YORK CITY METRO AREA


CITY           SKY/WX    TMP DP  RH WIND       PRES   REMARKS
CENTRAL PARK   CLOUDY    50  37  61 CALM      30.23R
LAGUARDIA APRT CLOUDY    50  37  61 SE6       30.21R
KENNEDY INTL   CLOUDY    49  38  65 SE6       30.23R
NEWARK/LIBERTY CLOUDY    50  39  66 S8        30.21R
BRNX BOT. GARD   N/A     48  37  66 E2        30.20F
TETERBORO      CLOUDY    51  35  54 SE5       30.20R
$$

NYZ177-179-078>081-011200-
LONG ISLAND NEW YORK

CITY           SKY/WX    TMP DP  RH WIND       PRES   REMARKS
FARMINGDALE    CLOUDY    48  39  71 SE6       30.21S
ISLIP          CLOUDY    47  40  76 E7        30.21S
SHIRLEY        CLOUDY    46  40  79 CALM      30.23S
RIVERHEAD        N/A     45  41  87 CALM      30.23S
WESTHAMPTON    CLOUDY    45  41  86 E3        30.25R
EAST HAMPTON   CLOUDY    41  38  92 CALM      30.24R
MONTAUK POINT    N/A     46  40  79 CALM      30.27R
$$

NYZ052-065-067-011200-
HUDSON VALLEY

CITY           SKY/WX    TMP DP  RH WIND       PRES   REMARKS
WHITE PLAINS   CLOUDY    46  39  76 E5        30.20R
NEWBURGH       CLOUDY    48  41  76 VRB5      30.20R
MONTGOMERY     LGT RAIN  48  42  80 CALM      30.19R
POUGHKEEPSIE   CLOUDY    50  39  66 CALM      30.19R
ALBANY         LGT RAIN  51  35  54 S7        30.18R
$$

NJZ001-105-106-008-010-013-015-019>022-104-011200-
NEW JERSEY

CITY           SKY/WX    TMP DP  RH WIND       PRES   REMARKS
NEWARK/LIBERTY CLOUDY    50  39  66 S8        30.21R
TETERBORO      CLOUDY    51  35  54 SE5       30.20R
CALDWELL       LGT RAIN  49  40  71 CALM      30.21R
MORRISTOWN     CLOUDY    48  43  81 CALM      30.21R
SOMERVILLE     LGT RAIN  47  43  86 CALM      30.20R
SUSSEX         LGT RAIN  45  42  89 CALM      30.19S
ANDOVER          N/A     45  40  82 CALM      30.19R
TRENTON        LGT RAIN  47  41  80 SE5       30.20R
MILLVILLE      LGT RAIN  48  46  93 E6        30.19R
ATLANTIC CITY  LGT RAIN  49  46  90 CALM      30.20R
WRIGHTSTOWN    LGT RAIN  46  44  91 CALM      30.18R
TOMS RIVER     CLOUDY    46  43  87 CALM      30.22R
BELMAR         LGT RAIN  48  42  80 E3        30.23R
$$

PAZ047>061-062-071-011200-
EASTERN PENNSYLVANIA

CITY           SKY/WX    TMP DP  RH WIND       PRES   REMARKS
PHILADELPHIA   LGT RAIN  48  40  73 SE7       30.20R
ALLENTOWN      LGT RAIN  47  39  74 CALM      30.18S
SCRANTON       LGT RAIN  44  37  76 CALM      30.13R
$$

CTZ002-004>006-009-010-012-RIZ004-006-007-MAZ004-011-015-011200-
SOUTHERN NEW ENGLAND
 IN CT

CITY           SKY/WX    TMP DP  RH WIND       PRES   REMARKS
BRADLEY INTL   CLOUDY    46  37  71 S3        30.22S
HARTFORD       CLOUDY    48  37  65 SE3       30.23S
DANBURY        CLOUDY    46  38  73 NE3       30.21F
WTRBRY/OXFORD  CLOUDY    45  36  70 SE5       30.22F
BRIDGEPORT     CLOUDY    49  39  68 E9        30.22S
MERIDEN        CLOUDY    47  38  71 CALM      30.23S
NEW HAVEN      CLOUDY    48  38  68 E3        30.22F
CHESTER        FAIR      45  37  76 CALM      30.23S
GROTON         CLOUDY    46  45  96 E5        30.25R
WILLIMANTIC    CLOUDY    45  38  76 CALM      30.24S

 IN RI

CITY           SKY/WX    TMP DP  RH WIND       PRES   REMARKS
PROVIDENCE     CLOUDY    44  37  76 CALM      30.27R
BLOCK ISLAND   CLOUDY    45  39  79 E3        30.26R
WESTERLY       CLOUDY    43  37  79 CALM      30.25S

 IN MA

CITY           SKY/WX    TMP DP  RH WIND       PRES   REMARKS
BOSTON         CLOUDY    45  35  68 S5        30.26R
WORCESTER      CLOUDY    44  21  40 W9        30.22R
WESTFIELD      CLOUDY    45  36  70 CALM      30.22S
PROVINCETOWN   CLOUDY    45  40  82 S3        30.27R
NANTUCKET      CLOUDY    45  40  82 E5        30.26R
$$

ANZ330-335-338-340-345-350-353-355-011200-
COASTAL MARINE OBSERVATIONS


STATION/POSITION TIME  SKY/WX   TEMP    WIND        PRES    VSBY  WAVE
                                AIR SEA DIR/SP/G                  HT/PER
                 (UTC)          (F)     (DEG/KT/KT) (MB)    (MI)  (FT/S)
NY HARB ENTRANCE 0950            48 51  110/  6/  8 1022.5          4/ 7
20S FIRE ISLAND  0950            47 49   90/  8/  8 1022.5          4/ 8
GREAT SOUTH BAY  1015            49 57  110/  8/ 10   N/A
23 SSW MONTAUK P 1050            46 47  110/  8/ 10 1024.0          4/ 8
15 E BARNEGAT LI 1022               51                N/A           5/ 8
HUDSON CANYON    0950            49 48              1022.0          5/ 8
KINGS POINT      1000            48 53              1022.4
EXECUTION ROCKS  NOT AVBL
CENTRAL LI SOUND NOT AVBL
EASTERN LI SOUND 1000            47 48  110/  6/  6   N/A
ROBBINS REEF     1000            49     120/  7/  9 1021.8
$$


>>>>>>>>>>>>>>>>>>>>>>>>>>>> KEY <<<<<<<<<<<<<<<<<<<<<<<<<<<
>                                                          <
>     SKY/WX - SKY CONDITION/PRESENT WEATHER               <
>     TMP    - TEMPERATURE IN FAHRENHEIT                   <
>     DP     - DEWPOINT IN FAHRENHEIT                      <
>     RH     - RELATIVE HUMIDITY IN PERCENT                <
>     WIND   - DIRECTION AND SPEED IN MPH                  <
>     PRES   - MEAN SEA LEVEL PRESSURE IN INCHES OF HG     <
>     WCI    - WIND CHILL INDEX                            <
>     VSB    - VISIBILITY IN MILES                         <
>     HX     - HEAT INDEX                                  <
>     TC     - TEMPERATURE IN CELSIUS                      <
>     VRB    - VARIABLE WIND DIRECTION                     <
>                                                          <
>>>>>>>>>>>>>>>>>>>>>>>>>>>> KEY <<<<<<<<<<<<<<<<<<<<<<<<<<<






USA.gov is the U.S. government's official web portal to all federal, state and local government web resources and services.